User: anonymous   Login
Location: Bear Trap Landing
(45.2437°N, 67.7928°W)
Time: 17:15:57
(UTC+00:00)
Language:

Envisat - Orbit

View from above orbital plane
View from above orbital plane
View from above satellite
View from above satellite

Ground track
Ground track

The orbit data is extracted from the following two-line orbital elements,

1 27386U 02009A   21111.53998851  .00000049  00000-0  29607-4 0  9992
2 27386  98.1481 108.5073 0001365  86.5424  23.0844 14.38021908  2893
Epoch (UTC): 21 April 2021 12:57:35
Eccentricity: 0.0001365
inclination: 98.1481°
perigee height: 764 km
apogee height: 766 km
right ascension of ascending node: 108.5073°
argument of perigee: 86.5424°
revolutions per day: 14.38021908
mean anomaly at epoch: 23.0844°
orbit number at epoch: 289

The dashed part of the orbit path shows where the satellite is in the earth's shadow,  

DLR